Le nostre stazioni meteo in Italia

Pubblicità
Il mio iltempo24.it
Vieste, Italia (16266): Temperatura & dewpoint: 04.04.2020 04:00:00 - 10.04.2020 04:00:00 (CEST)Vieste, Italia (16266): velocità del vento: 04.04.2020 04:00:00 - 10.04.2020 04:00:00 (CEST)Vieste, Italia (16266): direzione del vento: 04.04.2020 04:00:00 - 10.04.2020 04:00:00 (CEST)Vieste, Italia (16266): reduced air pressure: 04.04.2020 04:00:00 - 10.04.2020 04:00:00 (CEST)Vieste, Italia (16266): precipitazioni: 04.04.2020 04:00:00 - 10.04.2020 04:00:00 (CEST)
Data & Tempo tt [°C] td [°C] ff [km/h] ff [kn] dd ppp [hPa] rr [mm]
10.04.2020 04:00:00 14,6 -3,8 11 6 NO 1020,7 -
10.04.2020 03:00:00 13,9 -3,1 8 4 NO 1020,8 -
10.04.2020 02:00:00 13,0 -3,4 5 3 N 1021,0 0,0
10.04.2020 01:00:00 14,0 -3,0 8 4 NO 1021,2 -
10.04.2020 00:00:00 13,9 -3,5 8 4 ONO 1021,4 -
09.04.2020 23:00:00 13,8 -4,1 9 5 NO 1021,4 -
09.04.2020 22:00:00 13,9 -3,5 5 3 N 1021,5 -
09.04.2020 21:00:00 15,2 -5,4 8 4 NNO 1021,0 -
09.04.2020 20:00:00 15,7 -5,5 8 4 NNO 1020,5 0,0
09.04.2020 19:00:00 17,3 -6,0 9 5 NNO 1020,4 -
09.04.2020 18:00:00 18,2 -5,2 15 8 NNO 1020,4 -
09.04.2020 17:00:00 17,8 -0,6 21 11 NNE 1020,8 -
09.04.2020 16:00:00 17,9 -0,5 22 12 N 1021,0 -
09.04.2020 15:00:00 17,6 3,4 22 12 N 1021,5 -
09.04.2020 14:00:00 17,7 3,1 21 11 NNE 1022,0 0,0
09.04.2020 13:00:00 17,9 3,7 24 13 NNE 1022,2 -
09.04.2020 12:00:00 17,5 3,3 26 14 NNE 1022,6 -
09.04.2020 11:00:00 16,7 3,3 21 11 NNE 1022,9 -
09.04.2020 10:00:00 15,8 7,2 16 9 NE 1022,6 -
09.04.2020 09:00:00 15,2 1,6 9 5 N 1022,5 -
09.04.2020 08:00:00 12,3 2,6 5 3 ONO 1022,4 0,0
09.04.2020 07:00:00 7,5 -0,1 2 1 NNO 1022,1 -
09.04.2020 06:00:00 7,5 0,4 0 0 N 1021,9 -
09.04.2020 05:00:00 9,2 1,3 2 1 SSO 1022,0 -
09.04.2020 04:00:00 9,3 2,8 4 2 NO 1022,1 -
09.04.2020 03:00:00 10,4 4,5 8 4 O 1022,6 -
09.04.2020 02:00:00 10,4 5,7 5 3 NNO 1023,3 0,0
09.04.2020 01:00:00 11,2 8,4 5 3 O 1023,5 -
09.04.2020 00:00:00 11,8 8,4 5 3 NNO 1023,9 -
08.04.2020 23:00:00 11,8 8,2 8 4 NNO 1024,0 -
08.04.2020 22:00:00 11,3 6,0 5 3 NNO 1023,6 -
08.04.2020 21:00:00 11,1 6,2 4 2 ONO 1023,5 -
08.04.2020 20:00:00 12,7 7,9 2 1 NNO 1023,1 0,0
08.04.2020 19:00:00 14,5 9,3 4 2 SSO 1023,3 -
08.04.2020 18:00:00 15,3 9,4 8 4 SE 1023,5 -
08.04.2020 17:00:00 15,6 9,2 9 5 ESE 1023,8 -
08.04.2020 16:00:00 15,7 8,9 5 3 E 1024,3 -
08.04.2020 15:00:00 15,7 8,9 5 3 E 1024,8 -
08.04.2020 14:00:00 16,1 8,8 9 5 ESE 1025,2 0,0
08.04.2020 13:00:00 16,3 7,7 8 4 ESE 1025,7 -
08.04.2020 12:00:00 16,0 7,4 11 6 SSE 1025,9 -
08.04.2020 11:00:00 15,6 9,2 9 5 S 1026,2 -
08.04.2020 10:00:00 14,7 9,9 8 4 S 1026,2 -
08.04.2020 09:00:00 14,0 6,5 8 4 SSO 1026,0 -
08.04.2020 08:00:00 11,3 2,5 0 0 N 1026,2 0,0
08.04.2020 07:00:00 9,9 -1,0 5 3 SO 1026,1 -
08.04.2020 06:00:00 10,3 -0,6 4 2 NNO 1025,7 -
08.04.2020 05:00:00 10,5 2,0 9 5 NNO 1026,0 -
08.04.2020 04:00:00 9,9 -0,4 4 2 NNO 1026,4 -
08.04.2020 03:00:00 11,7 0,4 9 5 ONO 1026,3 -
08.04.2020 02:00:00 11,8 4,2 8 4 O 1026,8 0,0
08.04.2020 01:00:00 11,7 8,3 9 5 O 1027,2 -
08.04.2020 00:00:00 11,8 9,3 8 4 NO 1027,5 -
07.04.2020 23:00:00 11,9 8,5 8 4 NNO 1027,5 -
07.04.2020 22:00:00 10,9 4,9 5 3 N 1027,1 -
07.04.2020 21:00:00 11,9 7,6 4 2 NNE 1026,6 -
07.04.2020 20:00:00 13,2 9,8 4 2 N 1026,2 0,0
07.04.2020 19:00:00 14,5 11,2 5 3 N 1026,0 -
07.04.2020 18:00:00 14,9 11,3 16 9 NNE 1026,5 -
07.04.2020 17:00:00 15,2 11,4 18 10 NNE 1026,5 -
07.04.2020 16:00:00 16,0 11,5 16 9 NNE 1026,7 -
07.04.2020 15:00:00 16,0 11,9 21 11 NNE 1026,8 -
07.04.2020 14:00:00 15,9 12,0 21 11 NE 1027,3 0,0
07.04.2020 13:00:00 16,0 12,3 18 10 NNE 1027,4 -
07.04.2020 12:00:00 16,0 12,5 18 10 NNE 1027,6 -
07.04.2020 11:00:00 15,6 11,5 16 9 NNE 1027,5 -
07.04.2020 10:00:00 15,4 10,1 13 7 NNE 1027,2 -
07.04.2020 09:00:00 14,1 8,0 9 5 N 1026,8 -
07.04.2020 08:00:00 10,7 2,7 4 2 NO 1026,6 0,0
07.04.2020 07:00:00 10,0 1,8 0 0 N 1026,4 -
07.04.2020 06:00:00 10,0 -0,6 4 2 NO 1026,0 -
07.04.2020 05:00:00 10,4 -0,8 4 2 NO 1026,0 -
07.04.2020 04:00:00 11,6 0,6 0 0 N 1026,1 -
07.04.2020 03:00:00 12,6 -0,1 8 4 ONO 1026,1 -
07.04.2020 02:00:00 12,5 0,8 8 4 NO 1026,3 0,0
07.04.2020 01:00:00 12,2 2,0 5 3 O 1026,3 -
07.04.2020 00:00:00 12,6 3,2 8 4 NO 1026,1 -
06.04.2020 23:00:00 13,0 6,1 5 3 NO 1026,3 -
06.04.2020 22:00:00 13,5 6,1 5 3 NO 1025,8 -
06.04.2020 21:00:00 14,0 6,3 8 4 N 1025,3 -
06.04.2020 20:00:00 13,2 2,9 2 1 O 1024,8 0,0
06.04.2020 19:00:00 15,8 4,4 5 3 SO 1024,9 -
06.04.2020 18:00:00 16,2 5,4 11 6 S 1024,9 -
06.04.2020 17:00:00 16,4 7,8 13 7 SO 1024,8 -
06.04.2020 16:00:00 17,0 8,1 11 6 S 1025,0 -
06.04.2020 15:00:00 17,7 9,0 11 6 SSO 1025,3 -
06.04.2020 14:00:00 17,1 9,7 9 5 E 1025,4 0,0
06.04.2020 13:00:00 17,1 10,2 8 4 E 1025,2 -
06.04.2020 12:00:00 16,3 9,9 5 3 ENE 1025,0 -
06.04.2020 11:00:00 15,7 10,2 2 1 ESE 1024,6 -
06.04.2020 10:00:00 15,5 9,1 4 2 SE 1023,8 -
06.04.2020 09:00:00 14,1 9,3 2 1 SE 1023,1 -
06.04.2020 08:00:00 11,9 6,5 0 0 N 1022,7 0,0
06.04.2020 07:00:00 9,9 4,0 2 1 N 1022,2 -
06.04.2020 06:00:00 10,7 5,0 2 1 ONO 1021,4 -
06.04.2020 05:00:00 10,8 5,5 0 0 N 1020,9 -
06.04.2020 04:00:00 11,5 5,9 2 1 SSO 1021,2 -
06.04.2020 03:00:00 11,5 5,7 5 3 SO 1020,9 -
06.04.2020 02:00:00 11,7 5,9 4 2 O 1021,0 0,0
06.04.2020 01:00:00 11,1 5,4 0 0 N 1021,0 -
06.04.2020 00:00:00 11,9 5,7 0 0 N 1020,7 -
05.04.2020 23:00:00 12,6 5,4 0 0 N 1020,3 -
05.04.2020 22:00:00 13,7 6,2 2 1 N 1020,0 -
05.04.2020 21:00:00 14,3 6,8 5 3 ONO 1019,4 -
05.04.2020 20:00:00 14,5 6,8 2 1 NNO 1018,7 0,0
05.04.2020 19:00:00 15,8 8,2 8 4 N 1018,0 -
05.04.2020 18:00:00 16,3 8,9 9 5 N 1017,9 -
05.04.2020 17:00:00 17,1 9,2 11 6 N 1017,5 -
05.04.2020 16:00:00 17,0 9,1 15 8 NNE 1017,5 -
05.04.2020 15:00:00 16,9 9,3 18 10 N 1017,3 -
05.04.2020 14:00:00 16,0 10,3 15 8 N 1017,4 0,0
05.04.2020 13:00:00 16,3 9,9 18 10 NNE 1017,3 -
05.04.2020 12:00:00 16,2 10,5 18 10 NNE 1017,4 -
05.04.2020 11:00:00 16,3 10,1 18 10 N 1017,3 -
05.04.2020 10:00:00 16,2 10,0 18 10 NNE 1016,8 -
05.04.2020 09:00:00 14,7 9,4 18 10 N 1016,2 -
05.04.2020 08:00:00 14,3 9,9 16 9 NNO 1015,7 0,0
05.04.2020 07:00:00 14,5 8,2 22 12 N 1015,3 -
05.04.2020 06:00:00 14,3 9,1 18 10 NNE 1014,9 -
05.04.2020 05:00:00 14,2 9,4 21 11 N 1014,9 -
05.04.2020 04:00:00 14,2 8,8 26 14 N 1014,9 -
05.04.2020 03:00:00 14,2 9,0 21 11 NE 1015,5 -
05.04.2020 02:00:00 14,7 9,0 16 9 N 1015,9 0,0
05.04.2020 01:00:00 14,3 9,9 18 10 NNE 1016,0 -
05.04.2020 00:00:00 14,7 9,2 16 9 NE 1016,0 -
04.04.2020 23:00:00 15,2 8,4 9 5 N 1015,9 -
04.04.2020 22:00:00 14,8 8,7 18 10 N 1015,6 -
04.04.2020 21:00:00 14,6 8,0 24 13 NNO 1015,3 -
04.04.2020 20:00:00 13,9 7,8 18 10 N 1015,0 0,0
04.04.2020 19:00:00 14,3 8,4 18 10 NNO 1014,7 -
04.04.2020 18:00:00 15,7 7,4 22 12 NNO 1014,3 -
04.04.2020 17:00:00 16,2 6,3 24 13 NNO 1014,4 -
04.04.2020 16:00:00 16,2 6,5 24 13 N 1014,6 -
04.04.2020 15:00:00 16,8 6,2 26 14 NNO 1014,7 -
04.04.2020 14:00:00 16,5 5,7 28 15 N 1015,0 0,0
04.04.2020 13:00:00 16,3 7,4 21 11 N 1015,4 -
04.04.2020 12:00:00 16,0 6,9 18 10 NNE 1015,5 -
04.04.2020 11:00:00 15,7 6,1 18 10 NNE 1015,3 -
04.04.2020 10:00:00 15,3 7,5 16 9 N 1014,8 -
04.04.2020 09:00:00 14,0 9,4 15 8 N 1014,2 -
04.04.2020 08:00:00 12,2 9,0 15 8 NO 1014,2 0,0
04.04.2020 07:00:00 11,3 7,6 13 7 NNO 1014,0 -
04.04.2020 06:00:00 10,9 7,0 13 7 N 1013,9 -
04.04.2020 05:00:00 10,7 6,4 13 7 NO 1013,7 -
04.04.2020 04:00:00 10,3 5,2 13 7 NO 1013,9 -

tt = Temperatura
td = dewpoint
ff = velocità del vento
dd = direzione del vento
ppp = reduced air pressure
rr = precipitazioni

Stazioni seguenti

WeatherPro
AMSI
MeteoEarth